Regional Weather Roundup
Issued by NWS

Home | Current Version | Previous Version | Text Only | Print | Product List | Glossary Off
Versions: 1 2 3 4 5 6 7 8 9 10 11 12 13 14 15 16 17 18 19 20 21 22 23 24 25 26 27

000
ASUS45 KBOU 271107
RWRCO

WEATHER ROUNDUP FOR COLORADO
NATIONAL WEATHER SERVICE DENVER/BOULDER CO
500 AM MDT SAT AUG 27 2016

NOTE: "FAIR" INDICATES FEW OR NO CLOUDS BELOW 12000 FEET WITH NO
SIGNIFICANT WEATHER AND/OR OBSTRUCTIONS TO VISIBILITY.

COZ001>005-013-030-031-271200-
...NORTHWEST COLORADO...

CITY           SKY/WX    TMP DP  RH WIND       PRES   REMARKS
CRAIG          FAIR      49  40  71 VRB3      30.19S
HAYDEN         FAIR      45  37  76 E13       30.21S
MEEKER         FAIR      41  39  93 NE5       30.21S
MOUNT WERNER   NOT AVBL
STEAMBOAT SPGS FAIR      41  37  84 CALM      30.23S
WALDEN         FAIR      36  32  87 SE7       30.30R
$$

COZ006>008-011-271200-
...WEST CENTRAL VALLEYS...

CITY           SKY/WX    TMP DP  RH WIND       PRES   REMARKS
GRAND JUNCTION FAIR      56  47  71 E7        30.15S
MONTROSE       FAIR      54  44  69 S7        30.22F
EAGLE          FAIR      46  45  93 SE3       30.28S
RIFLE          FAIR      50  49  96 E3        30.22R
DELTA          NOT AVBL
NUCLA          FAIR     N/A N/A N/A SE5       30.23R
$$

COZ017>023-064>068-271200-
...SOUTHWEST COLORADO...

CITY           SKY/WX    TMP DP  RH WIND       PRES   REMARKS
DURANGO        MOCLDY    46  43  89 NE3       30.24S
CORTEZ         MOCLDY    53  49  86 NE6       30.19F
PAGOSA SPRINGS FAIR      45  44  99 S3        30.31R
TELLURIDE      FAIR      46  43  90 SE3       30.39F
WOLF CREEK PAS MOCLDY    36  36 100 SW12      30.54S
$$

COZ009-010-012-014-032>034-037-058>063-271200-
...CENTRAL COLORADO...

CITY           SKY/WX    TMP DP  RH WIND       PRES   REMARKS
ASPEN          FAIR      42  39  89 SW7       30.30R
BUENA VISTA    FAIR      44  36  71 SW3       30.32R
COPPER MTN     FAIR      41  30  65 SW6       30.50R
BERTHOUD PASS  FAIR      32  18  55 W15G23    30.49S WCI  22
COTTONWOOD PAS FAIR      50  30  46 SW9       30.39S
GUNNISON       FAIR      43  36  75 NW3       30.35S
KREMMLING      FAIR      39  34  81 CALM      30.30S
LEADVILLE      FAIR      34  31  88 CALM      30.39F
MONARCH PASS   FAIR      36  32  87 W22       30.60S
SALIDA         FAIR      48  37  65 W8        30.36S
SUNLIGHT       FAIR      39  37  93 N12       30.46S
WILKERSON PASS FAIR      39  28  65 W7        30.47S
$$

COZ069>075-271200-
...SAN LUIS VALLEY/SANGRE DE CRISTO MOUNTAINS...

CITY           SKY/WX    TMP DP  RH WIND       PRES   REMARKS
ALAMOSA        FAIR      37  35  92 SW5       30.29S
LA VETA PASS   FAIR      45  37  76 S8G17     30.40S
SAGUACHE       FAIR      46  39  76 N9        30.31S
$$

COZ035-036-038>040-271200-
...NORTHERN COLORADO FRONT RANGE...

CITY           SKY/WX    TMP DP  RH WIND       PRES   REMARKS
DENVER INTL AP FAIR      51  47  86 SW6       30.11R
DMNS CITY PARK   N/A     53  46  79 SW2       30.12R
AURORA         PTCLDY    52  46  77 S5        30.13S
FRONT RANGE AP NOT AVBL
ERIE MUNI ARPT FAIR      48  45  90 NW6       30.11R
BOULDER MUN AP FAIR      52  46  82 CALM      30.11S
CENTENNIAL     FAIR      50  41  71 SE5       30.13S
BROOMFIELD     FAIR      54  46  76 CALM      30.12F
FORT COLLINS   FAIR      52  48  87 S3        30.10S
LONGMONT       FAIR      49  46  87 SW5       30.12R
$$

COZ041-046-047-076>085-087-088-271200-
...PIKES PEAK/PALMER DIVIDE AND SOUTHERN FOOTHILLS...

CITY           SKY/WX    TMP DP  RH WIND       PRES   REMARKS
COLO. SPRINGS  FAIR      53  44  71 NW5       30.17S
A. F. ACADEMY  FAIR      46  43  90 N9        30.18S
SCHRIEVER AFB  NOT AVBL
ELLICOTT       NOT AVBL
FALCON         FAIR      51  45  81 W6        30.21S
FORT CARSON    FAIR      51  45  78 NW7       30.14S
LIMON          FAIR      45  45 100 N5        30.11F FOG
MONUMENT HILL  FAIR      48  45  87 S8        30.21S
TRINIDAD       FAIR      51  45  79 W10       30.16R
$$

COZ042>045-048>051-090-091-271200-
...NORTHEAST COLORADO...

CITY           SKY/WX    TMP DP  RH WIND       PRES   REMARKS
GREELEY ARPT   FAIR      48  45  87 CALM      30.10S
AKRON          FOG       48  47  96 CALM      30.08S VSB 3/4
BURLINGTON     FOG       53  52  96 S6        30.07S VSB 1/4
WRAY           NOT AVBL
STERLING       CLOUDY    46  46 100 CALM      30.06S
HOLYOKE        FOG       54  52  94 CALM      30.08S VSB 1/4
FORT MORGAN    FAIR      46  44  94 CALM      30.09R FOG
$$

COZ086-089-092>099-271200-
...SOUTHEAST COLORADO...

CITY           SKY/WX    TMP DP  RH WIND       PRES   REMARKS
PUEBLO         FAIR      56  47  71 CALM      30.08S
LA JUNTA       FAIR      54  51  90 NW6       30.05S
LAMAR          FAIR      49  49 100 CALM      30.03R FOG
SPRINGFIELD      N/A     55  53  93 SW7       30.06S
$$




USA.gov is the U.S. government's official web portal to all federal, state and local government web resources and services.